EDT,Max TemperatureF,Mean TemperatureF,Min TemperatureF,Max Dew PointF,MeanDew PointF,Min DewpointF,Max Humidity, Mean Humidity, Min Humidity, Max Sea Level PressureIn, Mean Sea Level PressureIn, Min Sea Level PressureIn, Max VisibilityMiles, Mean VisibilityMiles, Min VisibilityMiles, Max Wind SpeedMPH, Mean Wind SpeedMPH, Max Gust SpeedMPH,PrecipitationIn, CloudCover, Events, WindDirDegrees
2012-10-1,65,54,42,47,44,40,92,70,48,29.96,29.90,29.83,10,10,10,12,4,21,0.00,0,,76
2012-10-2,69,60,51,53,48,45,83,66,48,29.91,29.85,29.81,10,10,10,15,7,22,T,7,Rain,57
2012-10-3,62,59,56,58,56,54,93,83,72,30.06,29.97,29.91,10,6,2,15,8,20,0.05,8,Rain,167
2012-10-4,80,67,53,57,54,50,93,65,37,30.11,30.06,29.99,10,8,2,26,10,32,0.11,5,Rain-Thunderstorm,227
2012-10-5,56,48,40,51,42,37,93,76,59,30.14,30.10,30.05,10,10,10,14,8,17,0.03,6,Rain,248
2012-10-6,46,40,34,36,33,30,89,71,53,30.17,30.11,30.04,10,10,10,17,8,22,T,7,,246
2012-10-7,48,42,35,40,37,31,89,74,58,30.19,30.15,30.10,10,9,4,14,5,18,0.14,7,Rain,270
2012-10-8,56,44,31,30,27,25,82,56,30,30.22,30.16,30.09,10,10,10,18,9,24,0.00,0,,203
2012-10-9,64,53,41,46,36,28,67,53,39,30.09,29.97,29.86,10,10,7,26,13,33,0.17,1,Rain,201
2012-10-10,50,43,36,45,36,26,93,68,42,30.21,30.02,29.89,10,9,4,25,11,35,0.16,7,Rain,275
2012-10-11,63,49,34,43,32,28,82,57,32,30.22,30.16,30.07,10,10,10,28,14,32,0.00,1,,229
2012-10-12,53,45,37,41,33,24,85,60,35,30.47,30.35,30.22,10,10,8,15,6,20,0.01,3,Rain,54
2012-10-13,66,54,41,61,46,26,93,73,53,30.33,30.06,29.87,10,7,2,20,11,25,0.59,7,Rain,174
2012-10-14,73,62,50,63,57,43,93,75,57,30.09,29.64,29.45,10,7,1,38,17,48,0.79,7,Rain-Thunderstorm,214
2012-10-15,53,45,36,46,42,34,93,76,59,30.00,29.87,29.74,10,10,4,18,8,23,0.03,6,Rain,292
2012-10-16,64,49,34,46,38,32,92,69,46,30.01,29.87,29.66,10,9,1,23,10,30,T,1,Rain,163
2012-10-17,71,64,56,54,50,46,80,62,44,29.65,29.57,29.43,10,10,6,33,17,41,0.24,4,Rain-Thunderstorm,182
2012-10-18,58,51,44,54,45,31,89,64,38,29.63,29.45,29.34,10,9,3,32,15,43,0.60,6,Rain,214
2012-10-19,49,47,44,46,43,41,93,90,86,29.62,29.54,29.49,10,8,2,14,7,18,0.70,8,Rain,187
2012-10-20,56,48,40,46,42,38,96,76,55,29.95,29.75,29.62,10,8,4,17,9,21,0.06,7,Rain,240
2012-10-21,65,50,35,47,41,33,92,72,52,30.11,30.05,29.97,10,9,6,14,5,18,0.00,0,,151
2012-10-22,68,59,49,59,52,45,90,75,59,30.05,30.00,29.91,10,10,7,22,8,28,0.02,4,Thunderstorm,159
2012-10-23,68,64,59,61,58,54,90,81,72,29.99,29.95,29.91,10,10,9,23,8,28,0.01,6,Rain-Thunderstorm,199
2012-10-24,78,70,61,61,58,56,90,72,54,30.00,29.96,29.91,10,10,10,18,9,24,0.00,2,,187
2012-10-25,78,63,48,58,56,48,80,65,50,29.96,29.86,29.77,10,10,6,30,17,38,0.12,3,Rain,205
2012-10-26,49,43,37,46,37,32,93,75,56,30.30,30.18,29.97,10,9,5,23,13,29,0.22,5,Rain,339
2012-10-27,51,42,33,35,31,28,85,66,46,30.29,30.26,30.21,10,10,10,22,10,25,0.00,0,,13
2012-10-28,48,41,33,31,28,25,82,64,45,30.27,30.24,30.20,10,10,10,20,10,25,0.00,3,,16
2012-10-29,49,42,35,32,27,22,70,55,40,30.22,30.15,29.94,10,10,10,36,19,46,0.00,0,,356
2012-10-30,44,42,40,37,34,26,86,70,53,29.90,29.73,29.67,10,9,6,41,26,53,0.23,7,Rain,346
2012-10-31,44,42,39,38,36,34,92,81,70,29.81,29.75,29.67,10,8,3,23,14,35,0.11,8,Rain,330